Date String (YYYY-MM-DD hh:mm:ss) UTC,Instrument flags,absolute air pressure of the measurement (hPa),sample flow rate (lpm),inlet stack bypass flow (lpm),air temperature of the measurement (°C),ambient temperature measured by the external sensor (°C),aerosol sample conditioner tube jacket temperature (°C),OPC LED temperature (°C),internal box temperature (°C),relative humidity of the measurement (%),span deviation,mass concentration of particles derived from Lorenz-Mie calculation of OPC scattering (μg/m³),mass concentration of particles derived from Lorenz-Mie calculation of OPC scattering (μg/m³),mass concentration of particles derived from Lorenz-Mie calculation of OPC scattering (μg/m³)
DateTimeUTC,F1_M11,P_M11,Q1_M11,Q2_M11,T1_M11,T2_M11,T3_M11,T4_M11,T5_M11,U1_M11,ZSPAN_M11,X0_M11,X2_M11,X1_M11
2023-08-18 13:00:00,SystemResetWarning,0830.0,4.99,000.00,028.4,027.0,000.0,036.9,030.2,30.6,0000.9,0021.64,0010.86,0009.08
2023-08-18 13:01:00,SystemResetWarning,0830.1,5.00,000.00,028.5,027.2,000.0,036.9,030.2,30.5,0001.1,0021.61,0010.80,0009.05
2023-08-18 13:02:00,SystemResetWarning,0830.0,5.00,000.00,028.5,027.0,000.0,036.9,030.2,29.0,0001.6,0021.51,0010.77,0009.02
2023-08-18 13:03:00,SystemResetWarning,0830.0,4.99,000.00,028.4,025.5,000.0,036.8,029.9,28.9,0001.6,0021.57,0010.73,0008.99
2023-08-18 13:04:00,SystemResetWarning,0830.0,5.01,000.00,028.3,024.2,000.0,036.7,029.6,28.4,0001.4,0021.29,0010.60,0008.92
2023-08-18 13:05:00,SystemResetWarning,0830.0,5.01,000.00,028.3,024.2,000.0,036.6,029.6,28.3,0001.4,0022.43,0010.52,0008.87
2023-08-18 13:06:00,SystemResetWarning,0830.0,5.00,000.00,028.2,024.5,000.0,036.7,029.5,29.0,0001.6,0022.74,0010.43,0008.81
2023-08-18 13:07:00,SystemResetWarning,0830.0,4.99,000.00,028.1,024.9,000.0,036.7,029.5,28.9,0001.6,0022.57,0010.43,0008.75
2023-08-18 13:08:00,SystemResetWarning,0830.0,5.01,000.00,028.1,025.3,000.0,036.7,029.6,28.6,0001.7,0022.07,0010.38,0008.69
2023-08-18 13:09:00,SystemResetWarning,0830.1,5.00,000.00,028.1,025.7,000.0,036.7,029.7,29.0,0001.8,0022.21,0010.32,0008.68
2023-08-18 13:10:00,SystemResetWarning,0830.0,5.00,000.00,028.2,026.0,000.0,036.7,029.8,28.6,0001.6,0023.23,0010.35,0008.70
2023-08-18 13:11:00,SystemResetWarning,0830.0,5.00,000.00,028.2,026.3,000.0,036.7,029.9,28.2,0001.5,0024.98,0010.38,0008.69
2023-08-18 13:12:00,SystemResetWarning,0830.0,5.00,000.00,028.2,026.5,000.0,036.7,029.9,27.7,0001.1,0026.88,0010.33,0008.67
2023-08-18 13:13:00,SystemResetWarning,0830.0,5.01,000.00,028.2,026.7,000.0,036.7,030.0,27.6,0000.7,0027.49,0010.25,0008.63
2023-08-18 13:14:00,SystemResetWarning,0830.0,5.00,000.00,028.3,026.9,000.0,036.8,030.0,27.5,0000.6,0027.66,0010.26,0008.61
2023-08-18 13:15:00,SystemResetWarning,0830.0,5.00,000.00,028.3,027.0,000.0,036.8,030.1,27.8,0000.8,0027.91,0010.34,0008.62
2023-08-18 13:16:00,SystemResetWarning,0830.0,5.00,000.00,028.4,027.2,000.0,036.8,030.1,29.6,0000.7,0027.80,0010.40,0008.65
2023-08-18 13:17:00,SystemResetWarning,0830.0,5.00,000.00,028.4,027.3,000.0,036.8,030.2,32.7,0000.9,0028.18,0010.45,0008.65
2023-08-18 13:18:00,SystemResetWarning,0830.1,5.00,000.00,028.5,027.4,000.0,036.8,030.2,32.4,0001.0,0028.25,0010.44,0008.67
2023-08-18 13:19:00,SystemResetWarning,0830.0,4.99,000.00,028.5,026.6,000.0,036.8,030.1,32.2,0001.1,0028.53,0010.46,0008.71
2023-08-18 13:20:00,SystemResetWarning,0830.1,5.00,000.00,028.4,025.0,000.0,036.7,029.8,32.7,0000.9,0028.55,0010.43,0008.73
2023-08-18 13:21:00,SystemResetWarning,0830.0,5.01,000.00,028.3,024.4,000.0,036.6,029.7,33.0,0000.5,0029.32,0010.52,0008.75
2023-08-18 13:22:00,SystemResetWarning,0830.0,5.01,000.00,028.3,024.6,000.0,036.6,029.7,32.7,0000.8,0029.28,0010.57,0008.79
2023-08-18 13:23:00,SystemResetWarning,0830.1,5.00,000.00,028.2,024.9,000.0,036.7,029.6,32.7,0001.3,0028.40,0010.60,0008.81
2023-08-18 13:24:00,SystemResetWarning,0830.0,4.99,000.00,028.2,025.3,000.0,036.7,029.7,32.7,0001.8,0027.77,0010.64,0008.83
2023-08-18 13:25:00,SystemResetWarning,0830.0,4.99,000.00,028.2,025.7,000.0,036.7,029.8,32.4,0002.1,0026.13,0010.66,0008.84
2023-08-18 13:26:00,SystemResetWarning,0830.0,5.00,000.00,028.2,026.0,000.0,036.7,029.9,32.4,0002.5,0025.56,0010.63,0008.83
2023-08-18 13:27:00,SystemResetWarning,0830.0,5.00,000.00,028.2,026.3,000.0,036.7,029.9,32.4,0002.5,0024.85,0010.64,0008.81
2023-08-18 13:28:00,SystemResetWarning,0830.1,5.01,000.00,028.2,026.5,000.0,036.7,030.0,32.3,0002.2,0025.20,0010.59,0008.76
2023-08-18 13:29:00,SystemResetWarning,0830.0,5.00,000.00,028.3,026.7,000.0,036.8,030.0,32.4,0001.9,0027.05,0010.50,0008.69
2023-08-18 13:30:00,SystemResetWarning,0830.1,5.00,000.00,028.3,026.9,000.0,036.8,030.1,32.2,0001.5,0027.45,0010.42,0008.58
2023-08-18 13:31:00,SystemResetWarning,0830.0,4.99,000.00,028.4,027.1,000.0,036.8,030.1,31.9,0001.7,0026.56,0010.09,0008.32
2023-08-18 13:32:00,SystemResetWarning,0830.1,5.01,000.00,028.4,027.2,000.0,036.8,030.2,31.8,0002.2,0025.78,0009.71,0008.05
2023-08-18 13:33:00,SystemResetWarning,0830.1,5.01,000.00,028.4,027.3,000.0,036.8,030.2,31.8,0002.5,0023.86,0009.29,0007.76
2023-08-18 13:34:00,SystemResetWarning,0830.1,4.99,000.00,028.5,026.5,000.0,036.8,030.1,31.9,0002.8,0022.47,0009.01,0007.51
2023-08-18 13:35:00,SystemResetWarning,0830.0,4.99,000.00,028.4,024.9,000.0,036.7,029.8,32.0,0002.6,0021.20,0008.77,0007.31
2023-08-18 13:36:00,SystemResetWarning,0830.0,5.01,000.00,028.3,024.4,000.0,036.6,029.7,32.2,0002.3,0021.00,0008.42,0007.07
2023-08-18 13:37:00,SystemResetWarning,0830.0,5.01,000.00,028.2,024.7,000.0,036.6,029.6,32.5,0002.3,0020.94,0008.06,0006.79
2023-08-18 13:38:00,SystemResetWarning,0830.0,5.00,000.00,028.2,025.0,000.0,036.7,029.6,32.6,0002.0,0020.15,0007.59,0006.46
2023-08-18 13:39:00,SystemResetWarning,0830.0,4.99,000.00,028.2,025.4,000.0,036.7,029.7,32.6,0002.0,0018.23,0007.16,0006.13
2023-08-18 13:40:00,SystemResetWarning,0830.1,5.00,000.00,028.2,025.7,000.0,036.7,029.8,32.8,0001.7,0014.88,0006.76,0005.81
2023-08-18 13:41:00,SystemResetWarning,0830.1,5.01,000.00,028.2,026.1,000.0,036.7,029.8,32.7,0001.4,0013.11,0006.28,0005.47
2023-08-18 13:42:00,SystemResetWarning,0830.1,5.00,000.00,028.2,026.3,000.0,036.7,029.9,32.5,0001.1,0012.72,0006.08,0005.30
2023-08-18 13:43:00,SystemResetWarning,0830.1,4.99,000.00,028.2,026.6,000.0,036.7,030.0,32.5,0000.2,0011.99,0005.90,0005.15
2023-08-18 13:44:00,SystemResetWarning,0830.1,5.00,000.00,028.3,026.8,000.0,036.8,030.0,32.9,-000.2,0011.26,0005.76,0005.03
2023-08-18 13:45:00,SystemResetWarning,0830.1,5.00,000.00,028.3,026.9,000.0,036.8,030.1,32.6,-000.1,0011.19,0005.89,0005.14
2023-08-18 13:46:00,SystemResetWarning,0830.1,5.00,000.00,028.4,027.1,000.0,036.8,030.1,32.7,0000.0,0011.99,0006.13,0005.35
2023-08-18 13:47:00,SystemResetWarning,0830.1,5.00,000.00,028.4,027.2,000.0,036.8,030.2,32.4,0000.0,0012.84,0006.45,0005.59
2023-08-18 13:48:00,SystemResetWarning,0830.1,5.00,000.00,028.4,026.2,000.0,036.7,030.0,32.5,0000.0,0014.16,0006.88,0005.88
2023-08-18 13:49:00,SystemResetWarning,0830.1,5.00,000.00,028.3,024.8,000.0,036.6,029.7,32.7,0000.0,0015.23,0007.31,0006.22
2023-08-18 13:50:00,SystemResetWarning,0830.1,5.00,000.00,028.3,024.5,000.0,036.6,029.7,33.3,0000.0,0016.18,0007.71,0006.61
2023-08-18 13:51:00,SystemResetWarning,0830.1,5.01,000.00,028.2,024.8,000.0,036.6,029.6,33.4,0000.1,0017.41,0008.24,0007.04
2023-08-18 13:52:00,SystemResetWarning,0830.1,5.00,000.00,028.2,025.1,000.0,036.6,029.6,33.3,0000.5,0019.21,0008.81,0007.47
2023-08-18 13:53:00,SystemResetWarning,0830.1,5.00,000.00,028.2,025.5,000.0,036.7,029.7,33.1,0000.6,0021.03,0009.31,0007.87
2023-08-18 13:54:00,SystemResetWarning,0830.1,5.00,000.00,028.2,025.8,000.0,036.7,029.8,33.4,0000.3,0022.00,0009.82,0008.26
2023-08-18 13:55:00,SystemResetWarning,0830.1,4.99,000.00,028.2,026.1,000.0,036.7,029.9,32.7,0000.8,0023.16,0010.30,0008.63
2023-08-18 13:56:00,SystemResetWarning,0830.1,5.00,000.00,028.2,026.4,000.0,036.7,029.9,32.8,0000.6,0023.91,0010.50,0008.76
2023-08-18 13:57:00,SystemResetWarning,0830.2,5.00,000.00,028.3,026.7,000.0,036.7,030.0,32.8,0000.8,0024.48,0010.57,0008.77
2023-08-18 13:58:00,SystemResetWarning,0830.3,5.01,000.00,028.3,026.9,000.0,036.7,030.1,33.0,0000.9,0024.71,0010.61,0008.78
2023-08-18 13:59:00,SystemResetWarning,0830.3,5.01,000.00,028.3,027.0,000.0,036.8,030.1,33.2,0000.9,0023.95,0010.55,0008.77
